Osoyoos, British Columbia

12:29 PM PST on December 02, 2016 (GMT -0800)
Osoyoos

Weather History for 71215 - January, 2014

Change the Weather History Date:

Monday, January 27, 2014

  Actual Average Record
Temperature  
Mean Temperature 34 °F -  
Max Temperature 37 °F - - ()
Min Temperature 31 °F - - ()
Degree Days  
Heating Degree Days 31    
Moisture  
Dew Point 29 °F    
Average Humidity 85    
Maximum Humidity 92    
Minimum Humidity 72    
Precipitation  
Precipitation 0.00 in - - ()
Sea Level Pressure  
Sea Level Pressure 30.42 in    
Wind  
Wind Speed 1 mph ()    
Max Wind Speed 7 mph    
Max Gust Speed -    
T = Trace of Precipitation, MM = Missing Value Source: Averaged Metar Reports

Daily Weather History Graph

Daily Weather History Graph

Search for Another Location

Airport or City:

Trip Planner

Search our weather history database for the weather conditions in past years. The results will help you decide how hot, cold, wet, or windy it might be!

Date:

Astronomy

Jan. 27, 2014 Rise Set
Actual Time 7:34 AM PST 4:47 PM PST
Civil Twilight 7:00 AM PST 5:21 PM PST
Nautical Twilight 6:21 AM PST 6:00 PM PST
Astronomical Twilight 5:44 AM PST 6:37 PM PST
Moon 4:25 AM PST (1/27) 1:33 PM PST (1/27)
Length of Visible Light 10h 21m
Length of Day
9h 12m
Waning Crescent, 14% of the Moon is Illuminated
Jan 27
Waning Crescent
Jan 30
New
Feb 6
First Quarter
Feb 14
Full
Feb 22
Last Quarter

Hourly Weather History & Observations

Time (PST) Temp. Windchill Dew Point Humidity Pressure Visibility Wind Dir Wind Speed Gust Speed Precip Events Conditions
12:00 AM 31.5 °F - 27.7 °F 86% 30.35 in - ESE 1.2 mph - N/A   Unknown
1:00 AM 31.6 °F - 28.2 °F 87% 30.35 in - Calm Calm - N/A   Unknown
2:00 AM 31.6 °F - 28.2 °F 87% 30.36 in - Calm Calm - N/A   Unknown
3:00 AM 31.5 °F - 28.2 °F 88% 30.36 in - SE 1.2 mph - N/A   Unknown
4:00 AM 32 °F - 29 °F 83% 30.38 in - SW 2.3 mph - -  
4:00 AM 31.8 °F - 28.8 °F 88% 30.38 in - SW 2.3 mph - N/A   Unknown
5:00 AM 31.6 °F - 28.8 °F 89% 30.38 in - Calm Calm - N/A   Unknown
6:00 AM 31.6 °F - 28.6 °F 88% 30.40 in - South 1.2 mph - N/A   Unknown
7:00 AM 31.6 °F - 28.6 °F 88% 30.41 in - Calm Calm - N/A   Unknown
8:00 AM 31.8 °F - 29.1 °F 90% 30.42 in - NNE 1.2 mph - N/A   Unknown
9:00 AM 31.5 °F - 29.3 °F 92% 30.45 in - SSW 1.2 mph - N/A   Unknown
10:00 AM 33 °F - 29 °F 82% 30.46 in - SSW 1.2 mph - -  
10:00 AM 32.9 °F - 29.5 °F 87% 30.46 in - SSW 1.2 mph - N/A   Unknown
11:00 AM 33.3 °F - 29.1 °F 85% 30.45 in - SW 1.2 mph - N/A   Unknown
12:00 PM 34.2 °F - 28.9 °F 81% 30.44 in - Calm Calm - N/A   Unknown
1:00 PM 32.9 °F - 29.5 °F 87% 30.45 in - SSW 2.3 mph - N/A   Unknown
2:00 PM 34.7 °F - 30.6 °F 85% 30.44 in - East 1.2 mph - N/A   Unknown
3:00 PM 36.0 °F - 30.2 °F 80% 30.44 in - South 1.2 mph - N/A   Unknown
4:00 PM 36 °F - 30 °F 72% 30.43 in - Calm Calm - -  
4:00 PM 36.0 °F - 30.2 °F 80% 30.43 in - Calm Calm - N/A   Unknown
5:00 PM 35.1 °F - 30.0 °F 82% 30.43 in - Calm Calm - N/A   Unknown
6:00 PM 35.6 °F 32.8 °F 30.9 °F 83% 30.43 in - WNW 3.5 mph - N/A   Unknown
7:00 PM 34.5 °F - 30.7 °F 86% 30.43 in - North 2.3 mph - N/A   Unknown
8:00 PM 32.9 °F - 30.4 °F 90% 30.43 in - Calm Calm - N/A   Unknown
9:00 PM 34.3 °F - 30.4 °F 85% 30.43 in - South 1.2 mph - N/A   Unknown
10:00 PM 34 °F - 30 °F 79% 30.43 in - ESE 2.3 mph - -  
10:00 PM 33.6 °F - 29.8 °F 86% 30.43 in - ESE 2.3 mph - N/A   Unknown
11:00 PM 36.3 °F 30.8 °F 29.3 °F 76% 30.42 in - SSE 6.9 mph - N/A   Unknown